Time,TemperatureF,DewpointF,PressureIn,WindDirection,WindDirectionDegrees,WindSpeedMPH,WindSpeedGustMPH,Humidity,HourlyPrecipIn,Conditions,Clouds,dailyrainin,SoftwareType,DateUTC
2013-01-28 00:02:00,22.0,18.0,-100.00,NNW,335,7.0,11.0,85,-99.99,,,-99.99,,2013-01-28 07:02:00,
2013-01-28 00:11:00,22.0,18.0,-100.00,North,0,9.0,11.0,85,-99.99,,,-99.99,,2013-01-28 07:11:00,
2013-01-28 00:21:00,22.0,18.0,-100.00,North,5,4.0,9.0,85,-99.99,,,-99.99,,2013-01-28 07:21:00,
2013-01-28 00:31:00,22.0,19.0,-100.00,NNW,330,3.0,6.0,86,-99.99,,,-99.99,,2013-01-28 07:31:00,
2013-01-28 00:41:00,22.0,19.0,-100.00,NNW,340,4.0,6.0,86,-99.99,,,-99.99,,2013-01-28 07:41:00,
2013-01-28 00:51:00,22.0,19.0,-100.00,NNW,330,4.0,6.0,86,-99.99,,,-99.99,,2013-01-28 07:51:00,
2013-01-28 01:01:00,22.0,19.0,-100.00,West,280,2.0,6.0,86,-99.99,,,-99.99,,2013-01-28 08:01:00,
2013-01-28 01:11:00,22.0,19.0,-100.00,North,350,0.0,4.0,86,-99.99,,,-99.99,,2013-01-28 08:11:00,
2013-01-28 01:21:00,22.0,19.0,-100.00,North,10,0.0,2.0,86,-99.99,,,-99.99,,2013-01-28 08:21:00,
2013-01-28 01:31:00,22.0,19.0,-100.00,NNW,335,4.0,5.0,86,-99.99,,,-99.99,,2013-01-28 08:31:00,
2013-01-28 01:41:00,22.0,19.0,-100.00,NNW,330,6.0,8.0,86,-99.99,,,-99.99,,2013-01-28 08:41:00,
2013-01-28 01:52:00,22.0,19.0,-100.00,NW,325,7.0,9.0,86,-99.99,,,-99.99,,2013-01-28 08:52:00,
2013-01-28 02:01:00,22.0,19.0,-100.00,NNW,330,5.0,9.0,86,-99.99,,,-99.99,,2013-01-28 09:01:00,
2013-01-28 02:11:00,22.0,19.0,-100.00,NNW,335,5.0,9.0,86,-99.99,,,-99.99,,2013-01-28 09:11:00,
2013-01-28 02:21:00,22.0,19.0,-100.00,NW,305,4.0,5.0,86,-99.99,,,-99.99,,2013-01-28 09:21:00,
2013-01-28 02:31:00,22.0,19.0,-100.00,NW,320,3.0,6.0,86,-99.99,,,-99.99,,2013-01-28 09:31:00,
2013-01-28 02:41:00,22.0,19.0,-100.00,NNW,345,2.0,4.0,86,-99.99,,,-99.99,,2013-01-28 09:41:00,
2013-01-28 02:51:00,22.0,19.0,-100.00,NNW,345,3.0,4.0,86,-99.99,,,-99.99,,2013-01-28 09:51:00,
2013-01-28 03:01:00,22.0,19.0,-100.00,NNW,345,4.0,4.0,86,-99.99,,,-99.99,,2013-01-28 10:01:00,
2013-01-28 03:11:00,22.0,19.0,-100.00,NNW,335,4.0,4.0,86,-99.99,,,-99.99,,2013-01-28 10:11:00,
2013-01-28 03:21:00,22.0,18.0,-100.00,North,0,2.0,4.0,86,-99.99,,,-99.99,,2013-01-28 10:21:00,
2013-01-28 03:31:00,22.0,18.0,-100.00,NNW,330,4.0,4.0,86,-99.99,,,-99.99,,2013-01-28 10:31:00,
2013-01-28 03:41:00,22.0,18.0,-100.00,NNW,345,4.0,5.0,86,-99.99,,,-99.99,,2013-01-28 10:41:00,
2013-01-28 03:51:00,22.0,18.0,-100.00,NNW,340,2.0,5.0,86,-99.99,,,-99.99,,2013-01-28 10:51:00,
2013-01-28 04:01:00,22.0,18.0,-100.00,NW,320,5.0,6.0,86,-99.99,,,-99.99,,2013-01-28 11:01:00,
2013-01-28 04:11:00,22.0,18.0,-100.00,NW,305,4.0,7.0,86,-99.99,,,-99.99,,2013-01-28 11:11:00,
2013-01-28 04:21:00,22.0,19.0,-100.00,NNW,345,2.0,6.0,86,-99.99,,,-99.99,,2013-01-28 11:21:00,
2013-01-28 04:32:00,22.0,19.0,-100.00,NNW,340,3.0,4.0,86,-99.99,,,-99.99,,2013-01-28 11:32:00,
2013-01-28 04:52:00,21.0,17.0,-100.00,NNE,20,6.0,9.0,86,-99.99,,,-99.99,,2013-01-28 11:52:00,
2013-01-28 05:03:00,21.0,17.0,-100.00,NNE,15,5.0,8.0,86,-99.99,,,-99.99,,2013-01-28 12:03:00,
2013-01-28 05:11:00,21.0,17.0,-100.00,NNE,20,2.0,6.0,86,-99.99,,,-99.99,,2013-01-28 12:11:00,
2013-01-28 05:22:00,21.0,17.0,-100.00,North,5,2.0,4.0,86,-99.99,,,-99.99,,2013-01-28 12:22:00,
2013-01-28 05:32:00,21.0,18.0,-100.00,NW,305,0.0,2.0,86,-99.99,,,-99.99,,2013-01-28 12:32:00,
2013-01-28 05:41:00,21.0,18.0,-100.00,NW,310,0.0,0.0,86,-99.99,,,-99.99,,2013-01-28 12:41:00,
2013-01-28 05:52:00,21.0,18.0,-100.00,ENE,65,0.0,0.0,86,-99.99,,,-99.99,,2013-01-28 12:52:00,
2013-01-28 06:02:00,21.0,18.0,-100.00,ESE,105,0.0,0.0,86,-99.99,,,-99.99,,2013-01-28 13:02:00,
2013-01-28 06:11:00,21.0,18.0,-100.00,ESE,110,0.0,0.0,86,-99.99,,,-99.99,,2013-01-28 13:11:00,
2013-01-28 06:22:00,21.0,18.0,-100.00,ESE,120,0.0,0.0,86,-99.99,,,-99.99,,2013-01-28 13:22:00,
2013-01-28 06:32:00,21.0,18.0,-100.00,NW,325,1.0,1.0,86,-99.99,,,-99.99,,2013-01-28 13:32:00,
2013-01-28 06:41:00,21.0,18.0,-100.00,NNW,330,1.0,2.0,86,-99.99,,,-99.99,,2013-01-28 13:41:00,
2013-01-28 06:52:00,20.0,17.0,-100.00,West,280,4.0,4.0,86,-99.99,,,-99.99,,2013-01-28 13:52:00,
2013-01-28 07:02:00,20.0,17.0,-100.00,NW,305,2.0,4.0,86,-99.99,,,-99.99,,2013-01-28 14:02:00,
2013-01-28 07:11:00,20.0,17.0,-100.00,NW,315,5.0,6.0,86,-99.99,,,-99.99,,2013-01-28 14:11:00,
2013-01-28 07:21:00,20.0,17.0,-100.00,North,350,4.0,6.0,86,-99.99,,,-99.99,,2013-01-28 14:21:00,
2013-01-28 07:32:00,20.0,17.0,-100.00,NNW,330,4.0,6.0,86,-99.99,,,-99.99,,2013-01-28 14:32:00,
2013-01-28 07:42:00,20.0,17.0,-100.00,NNW,340,5.0,7.0,86,-99.99,,,-99.99,,2013-01-28 14:42:00,
2013-01-28 07:52:00,20.0,17.0,-100.00,NW,325,6.0,7.0,86,-99.99,,,-99.99,,2013-01-28 14:52:00,
2013-01-28 08:02:00,20.0,17.0,-100.00,NNW,340,7.0,9.0,86,-99.99,,,-99.99,,2013-01-28 15:02:00,
2013-01-28 08:11:00,20.0,16.0,-100.00,NNW,345,7.0,9.0,86,-99.99,,,-99.99,,2013-01-28 15:11:00,
2013-01-28 08:22:00,20.0,16.0,-100.00,NNW,335,6.0,9.0,86,-99.99,,,-99.99,,2013-01-28 15:22:00,
2013-01-28 08:32:00,19.0,16.0,-100.00,NNW,330,6.0,9.0,86,-99.99,,,-99.99,,2013-01-28 15:32:00,
2013-01-28 08:42:00,19.0,16.0,-100.00,NNW,345,7.0,10.0,86,-99.99,,,-99.99,,2013-01-28 15:42:00,
2013-01-28 08:52:00,19.0,16.0,-100.00,NNW,345,7.0,10.0,86,-99.99,,,-99.99,,2013-01-28 15:52:00,
2013-01-28 09:03:00,19.0,16.0,-100.00,North,350,6.0,9.0,86,-99.99,,,-99.99,,2013-01-28 16:03:00,
2013-01-28 09:11:00,19.0,16.0,-100.00,North,0,5.0,8.0,86,-99.99,,,-99.99,,2013-01-28 16:11:00,
2013-01-28 09:21:00,19.0,16.0,-100.00,North,0,5.0,7.0,86,-99.99,,,-99.99,,2013-01-28 16:21:00,
2013-01-28 09:32:00,19.0,16.0,-100.00,North,0,5.0,6.0,86,-99.99,,,-99.99,,2013-01-28 16:32:00,
2013-01-28 09:42:00,20.0,16.0,-100.00,North,0,4.0,7.0,86,-99.99,,,-99.99,,2013-01-28 16:42:00,
2013-01-28 09:52:00,20.0,16.0,-100.00,North,5,4.0,6.0,86,-99.99,,,-99.99,,2013-01-28 16:52:00,
2013-01-28 10:01:00,20.0,17.0,-100.00,North,5,1.0,4.0,85,-99.99,,,-99.99,,2013-01-28 17:01:00,
2013-01-28 10:11:00,20.0,17.0,-100.00,NNE,15,3.0,4.0,85,-99.99,,,-99.99,,2013-01-28 17:11:00,
2013-01-28 10:22:00,20.0,17.0,-100.00,NNE,15,2.0,5.0,85,-99.99,,,-99.99,,2013-01-28 17:22:00,
2013-01-28 10:32:00,21.0,17.0,-100.00,North,10,0.0,4.0,85,-99.99,,,-99.99,,2013-01-28 17:32:00,
2013-01-28 10:41:00,22.0,18.0,-100.00,North,350,2.0,4.0,85,-99.99,,,-99.99,,2013-01-28 17:41:00,
2013-01-28 10:52:00,23.0,19.0,-100.00,WNW,295,2.0,3.0,85,-99.99,,,-99.99,,2013-01-28 17:52:00,
2013-01-28 11:01:00,24.0,20.0,-100.00,WNW,285,2.0,3.0,85,-99.99,,,-99.99,,2013-01-28 18:01:00,
2013-01-28 11:11:00,24.0,20.0,-100.00,WNW,295,3.0,4.0,85,-99.99,,,-99.99,,2013-01-28 18:11:00,
2013-01-28 11:22:00,23.0,19.0,-100.00,NW,305,2.0,4.0,85,-99.99,,,-99.99,,2013-01-28 18:22:00,
2013-01-28 11:33:00,23.0,19.0,-100.00,WNW,300,1.0,3.0,85,-99.99,,,-99.99,,2013-01-28 18:33:00,
2013-01-28 11:42:00,23.0,19.0,-100.00,North,355,2.0,3.0,85,-99.99,,,-99.99,,2013-01-28 18:42:00,
2013-01-28 11:51:00,23.0,19.0,-100.00,NNW,340,0.0,2.0,85,-99.99,,,-99.99,,2013-01-28 18:51:00,
2013-01-28 12:01:00,23.0,19.0,-100.00,West,275,0.0,2.0,85,-99.99,,,-99.99,,2013-01-28 19:01:00,
2013-01-28 12:11:00,22.0,19.0,-100.00,NW,310,1.0,2.0,85,-99.99,,,-99.99,,2013-01-28 19:11:00,
2013-01-28 12:21:00,23.0,20.0,-100.00,NW,315,0.0,2.0,85,-99.99,,,-99.99,,2013-01-28 19:21:00,
2013-01-28 12:32:00,24.0,20.0,-100.00,West,280,0.0,1.0,85,-99.99,,,-99.99,,2013-01-28 19:32:00,
2013-01-28 12:41:00,25.0,21.0,-100.00,WSW,255,1.0,-999.0,85,-99.99,,,-99.99,,2013-01-28 19:41:00,
2013-01-28 12:51:00,25.0,21.0,-100.00,NNW,345,4.0,6.0,85,-99.99,,,-99.99,,2013-01-28 19:51:00,
2013-01-28 13:02:00,24.0,20.0,-100.00,WNW,285,5.0,7.0,83,-99.99,,,-99.99,,2013-01-28 20:02:00,
2013-01-28 13:11:00,25.0,20.0,-100.00,WSW,255,2.0,6.0,81,-99.99,,,-99.99,,2013-01-28 20:11:00,
2013-01-28 13:21:00,27.0,22.0,-100.00,NW,315,1.0,-999.0,77,-99.99,,,-99.99,,2013-01-28 20:21:00,
2013-01-28 13:32:00,26.0,17.0,-100.00,SW,220,4.0,7.0,68,-99.99,,,-99.99,,2013-01-28 20:32:00,
2013-01-28 13:42:00,25.0,15.0,-100.00,SW,225,8.0,10.0,65,-99.99,,,-99.99,,2013-01-28 20:42:00,
2013-01-28 13:52:00,25.0,12.0,-100.00,SW,235,7.0,10.0,58,-99.99,,,-99.99,,2013-01-28 20:52:00,
2013-01-28 14:02:00,24.0,11.0,-100.00,SW,235,7.0,9.0,57,-99.99,,,-99.99,,2013-01-28 21:02:00,
2013-01-28 14:11:00,25.0,12.0,-100.00,WNW,295,1.0,9.0,58,-99.99,,,-99.99,,2013-01-28 21:11:00,
2013-01-28 14:21:00,28.0,12.0,-100.00,WNW,295,4.0,15.0,51,-99.99,,,-99.99,,2013-01-28 21:21:00,
2013-01-28 14:33:00,24.0,9.0,-100.00,SW,235,17.0,21.0,50,-99.99,,,-99.99,,2013-01-28 21:33:00,
2013-01-28 14:42:00,24.0,7.0,-100.00,SW,225,17.0,24.0,48,-99.99,,,-99.99,,2013-01-28 21:42:00,
2013-01-28 14:52:00,24.0,7.0,-100.00,WSW,240,19.0,24.0,48,-99.99,,,-99.99,,2013-01-28 21:52:00,
2013-01-28 15:01:00,24.0,7.0,-100.00,WSW,240,19.0,22.0,47,-99.99,,,-99.99,,2013-01-28 22:01:00,
2013-01-28 15:11:00,24.0,6.0,-100.00,WSW,240,18.0,24.0,46,-99.99,,,-99.99,,2013-01-28 22:11:00,
2013-01-28 15:22:00,23.0,6.0,-100.00,SW,235,20.0,27.0,48,-99.99,,,-99.99,,2013-01-28 22:22:00,
2013-01-28 15:32:00,23.0,6.0,-100.00,SW,235,22.0,27.0,48,-99.99,,,-99.99,,2013-01-28 22:32:00,
2013-01-28 15:42:00,22.0,6.0,-100.00,SW,230,20.0,27.0,49,-99.99,,,-99.99,,2013-01-28 22:42:00,
2013-01-28 15:52:00,23.0,11.0,-100.00,WNW,300,13.0,21.0,59,-99.99,,,-99.99,,2013-01-28 22:52:00,
2013-01-28 16:01:00,22.0,12.0,-100.00,NW,305,15.0,19.0,66,-99.99,,,-99.99,,2013-01-28 23:01:00,
2013-01-28 16:11:00,22.0,13.0,-100.00,NW,320,11.0,19.0,68,-99.99,,,-99.99,,2013-01-28 23:11:00,
2013-01-28 16:21:00,21.0,15.0,-100.00,NW,305,12.0,15.0,75,-99.99,,,-99.99,,2013-01-28 23:21:00,
2013-01-28 16:32:00,20.0,15.0,-100.00,WNW,300,9.0,14.0,79,-99.99,,,-99.99,,2013-01-28 23:32:00,
2013-01-28 16:41:00,20.0,15.0,-100.00,NW,310,10.0,14.0,81,-99.99,,,-99.99,,2013-01-28 23:41:00,
2013-01-28 16:52:00,20.0,15.0,-100.00,WNW,300,10.0,14.0,82,-99.99,,,-99.99,,2013-01-28 23:52:00,
2013-01-28 17:01:00,19.0,15.0,-100.00,NW,315,10.0,14.0,82,-99.99,,,-99.99,,2013-01-29 00:01:00,
2013-01-28 17:11:00,19.0,15.0,-100.00,NW,320,9.0,14.0,83,-99.99,,,-99.99,,2013-01-29 00:11:00,
2013-01-28 17:21:00,19.0,15.0,-100.00,NW,315,6.0,9.0,83,-99.99,,,-99.99,,2013-01-29 00:21:00,
2013-01-28 17:32:00,19.0,15.0,-100.00,West,275,2.0,6.0,83,-99.99,,,-99.99,,2013-01-29 00:32:00,
2013-01-28 17:41:00,19.0,15.0,-100.00,West,280,1.0,3.0,83,-99.99,,,-99.99,,2013-01-29 00:41:00,
2013-01-28 17:52:00,18.0,14.0,-100.00,WNW,300,2.0,3.0,83,-99.99,,,-99.99,,2013-01-29 00:52:00,
2013-01-28 18:01:00,18.0,14.0,-100.00,NW,310,4.0,5.0,83,-99.99,,,-99.99,,2013-01-29 01:01:00,
2013-01-28 18:11:00,18.0,14.0,-100.00,WNW,290,2.0,5.0,83,-99.99,,,-99.99,,2013-01-29 01:11:00,
2013-01-28 18:22:00,17.0,13.0,-100.00,WSW,245,4.0,4.0,83,-99.99,,,-99.99,,2013-01-29 01:22:00,
2013-01-28 18:31:00,17.0,12.0,-100.00,SW,220,5.0,6.0,83,-99.99,,,-99.99,,2013-01-29 01:31:00,
2013-01-28 18:41:00,16.0,11.0,-100.00,SW,220,4.0,6.0,81,-99.99,,,-99.99,,2013-01-29 01:41:00,
2013-01-28 18:52:00,15.0,10.0,-100.00,SW,215,7.0,9.0,79,-99.99,,,-99.99,,2013-01-29 01:52:00,
2013-01-28 19:01:00,14.0,8.0,-100.00,SW,225,9.0,10.0,79,-99.99,,,-99.99,,2013-01-29 02:01:00,
2013-01-28 19:11:00,15.0,10.0,-100.00,SW,225,9.0,11.0,79,-99.99,,,-99.99,,2013-01-29 02:11:00,
2013-01-28 19:21:00,16.0,10.0,-100.00,SW,230,10.0,12.0,75,-99.99,,,-99.99,,2013-01-29 02:21:00,
2013-01-28 19:32:00,16.0,8.0,-100.00,SW,230,8.0,11.0,70,-99.99,,,-99.99,,2013-01-29 02:32:00,
2013-01-28 19:41:00,15.0,6.0,-100.00,SW,235,7.0,9.0,68,-99.99,,,-99.99,,2013-01-29 02:41:00,
2013-01-28 19:52:00,13.0,4.0,-100.00,SW,230,10.0,11.0,66,-99.99,,,-99.99,,2013-01-29 02:52:00,
2013-01-28 20:02:00,11.0,2.0,-100.00,SW,220,9.0,13.0,66,-99.99,,,-99.99,,2013-01-29 03:02:00,
2013-01-28 20:11:00,12.0,3.0,-100.00,SW,230,13.0,14.0,64,-99.99,,,-99.99,,2013-01-29 03:11:00,
2013-01-28 20:21:00,11.0,1.0,-100.00,SSW,210,8.0,12.0,62,-99.99,,,-99.99,,2013-01-29 03:21:00,
2013-01-28 20:31:00,11.0,0.0,-100.00,SW,220,9.0,12.0,62,-99.99,,,-99.99,,2013-01-29 03:31:00,
2013-01-28 20:41:00,11.0,0.0,-100.00,SSW,210,9.0,12.0,60,-99.99,,,-99.99,,2013-01-29 03:41:00,
2013-01-28 20:52:00,11.0,0.0,-100.00,SW,220,10.0,12.0,60,-99.99,,,-99.99,,2013-01-29 03:52:00,
2013-01-28 21:01:00,12.0,0.0,-100.00,SW,225,9.0,11.0,58,-99.99,,,-99.99,,2013-01-29 04:01:00,
2013-01-28 21:11:00,12.0,0.0,-100.00,SW,230,8.0,11.0,57,-99.99,,,-99.99,,2013-01-29 04:11:00,
2013-01-28 21:21:00,11.0,-1.0,-100.00,SW,220,8.0,10.0,55,-99.99,,,-99.99,,2013-01-29 04:21:00,
2013-01-28 21:31:00,11.0,-2.0,-100.00,SW,220,7.0,11.0,55,-99.99,,,-99.99,,2013-01-29 04:31:00,
2013-01-28 21:41:00,11.0,-2.0,-100.00,SW,230,7.0,9.0,54,-99.99,,,-99.99,,2013-01-29 04:41:00,
2013-01-28 21:51:00,11.0,-3.0,-100.00,SW,235,7.0,9.0,53,-99.99,,,-99.99,,2013-01-29 04:51:00,
2013-01-28 22:03:00,10.0,-3.0,-100.00,West,260,1.0,7.0,53,-99.99,,,-99.99,,2013-01-29 05:03:00,
2013-01-28 22:12:00,11.0,-3.0,-100.00,WNW,290,1.0,5.0,53,-99.99,,,-99.99,,2013-01-29 05:12:00,
2013-01-28 22:21:00,13.0,-1.0,-100.00,NW,310,2.0,4.0,52,-99.99,,,-99.99,,2013-01-29 05:21:00,
2013-01-28 22:31:00,13.0,-2.0,-100.00,NW,305,2.0,3.0,50,-99.99,,,-99.99,,2013-01-29 05:31:00,
2013-01-28 22:42:00,13.0,-2.0,-100.00,WNW,300,2.0,3.0,49,-99.99,,,-99.99,,2013-01-29 05:42:00,
2013-01-28 22:52:00,13.0,-3.0,-100.00,WNW,300,2.0,3.0,49,-99.99,,,-99.99,,2013-01-29 05:52:00,
2013-01-28 23:01:00,9.0,-6.0,-100.00,WNW,285,0.0,3.0,50,-99.99,,,-99.99,,2013-01-29 06:01:00,
2013-01-28 23:11:00,7.0,-7.0,-100.00,SE,130,0.0,1.0,52,-99.99,,,-99.99,,2013-01-29 06:11:00,
2013-01-28 23:21:00,10.0,-3.0,-100.00,WNW,285,2.0,4.0,56,-99.99,,,-99.99,,2013-01-29 06:21:00,
2013-01-28 23:31:00,11.0,-1.0,-100.00,WNW,295,2.0,3.0,57,-99.99,,,-99.99,,2013-01-29 06:31:00,
2013-01-28 23:41:00,9.0,-3.0,-100.00,SE,135,6.0,6.0,56,-99.99,,,-99.99,,2013-01-29 06:41:00,
2013-01-28 23:52:00,5.0,-7.0,-100.00,ESE,115,3.0,6.0,58,-99.99,,,-99.99,,2013-01-29 06:52:00,